Location: Unspecified
(43.8746°N, 0.0000°E)
Time: 08:41:03
(UTC+00:00)

SL-14 DEB - Visible Passes

Search period start: 04 April 2026 00:00
Search period end: 14 April 2026 00:00
Orbit: 906 x 918 km, 82.6° (Epoch: 24 February)

Date Brightness Start Highest point End Pass type
(mag) Time Alt. Az. Time Alt. Az. Time Alt. Az.
4 Apr ? 19:03:03 10° NNW 19:07:47 25° W 19:12:30 10° SW visible
5 Apr ? 05:00:09 10° E 05:01:30 11° ENE 05:02:51 10° ENE visible
5 Apr ? 19:09:45 10° NW 19:13:51 20° W 19:17:58 10° SW visible
6 Apr ? 19:16:40 10° NW 19:19:54 15° W 19:23:09 10° WSW visible
7 Apr ? 19:24:06 10° WNW 19:25:55 11° WNW 19:27:42 10° W visible
13 Apr ? 04:05:26 10° E 04:07:20 12° ENE 04:09:14 10° ENE visible
